This demonstration page uses our WeatherBlox Daily Observations layout. Learn more.

Left ArrowRight Arrow

40.92501, -98.34201

Hourly Observations for August 21, 2020

Temp ( °F °C ) Dew Point ( °F °C ) Humidity (%) Winds ( mph kmh ) Pressure ( in mb ) Visibility ( mi km ) Precip ( " mm )
12:53 am 00:53 Clear 72 22.2 61 16.1 68 68 S 12 19 29.82 1010 10 16 0.00 0.00
1:53 am 01:53 Clear 71 21.7 61 16.1 71 71 S 12 19 29.82 1010 10 16 0.00 0.00
2:53 am 02:53 Clear 69 20.6 61 16.1 76 76 S 9 15 29.81 1010 10 16 0.00 0.00
3:53 am 03:53 Clear 68 20 60 15.6 76 76 S 12 19 29.82 1010 10 16 0.00 0.00
4:53 am 04:53 Clear 68 20 60 15.6 76 76 S 9 15 29.81 1010 10 16 0.00 0.00
5:53 am 05:53 Clear 67 19.4 60 15.6 79 79 S 9 15 29.82 1010 10 16 0.00 0.00
6:53 am 06:53 Sunny 67 19.4 60 15.6 79 79 S 10 17 29.82 1010 10 16 0.00 0.00
7:53 am 07:53 Sunny 69 20.6 60 15.6 73 73 S 10 17 29.82 1010 10 16 0.00 0.00
8:53 am 08:53 Sunny 74 23.3 61 16.1 64 64 S 14 22 29.82 1010 10 16 0.00 0.00
9:53 am 09:53 Sunny 78 25.6 63 17.2 60 60 S 10 17 29.83 1010 10 16 0.00 0.00
10:53 am 10:53 Sunny 82 27.8 63 17.2 53 53 S 12 19 29.83 1010 10 16 0.00 0.00
11:53 am 11:53 Sunny 86 30 62 16.7 45 45 SSW 12 19 29.83 1010 10 16 0.00 0.00
12:53 pm 12:53 Sunny 88 31.1 63 17.2 43 43 SSW 13 20 29.82 1010 10 16 0.00 0.00
1:53 pm 13:53 Sunny 90 32.2 63 17.2 41 41 S 12 19 29.82 1010 10 16 0.00 0.00
2:53 pm 14:53 Sunny 91 32.8 63 17.2 39 39 S 12 19 29.82 1010 10 16 0.00 0.00
3:53 pm 15:53 Sunny 92 33.3 64 17.8 40 40 S 12 19 29.82 1010 10 16 0.00 0.00
4:53 pm 16:53 Sunny 92 33.3 63 17.2 38 38 S 13 20 29.81 1010 10 16 0.00 0.00
5:53 pm 17:53 Sunny 90 32.2 63 17.2 41 41 S 13 20 29.82 1010 10 16 0.00 0.00
6:53 pm 18:53 Sunny 86 30 65 18.3 49 49 SSE 8 13 29.82 1010 10 16 0.00 0.00
7:53 pm 19:53 Sunny 81 27.2 67 19.4 62 62 SSE 9 15 29.81 1010 10 16 0.00 0.00
8:53 pm 20:53 Clear 78 25.6 66 18.9 67 67 S 8 13 29.82 1010 10 16 0.00 0.00
9:53 pm 21:53 Clear 75 23.9 66 18.9 74 74 S 7 11 29.85 1011 10 16 0.00 0.00
10:53 pm 22:53 Clear 71 21.7 66 18.9 84 84 S 7 11 29.86 1011 10 16 0.00 0.00
11:53 pm 23:53 Clear 70 21.1 65 18.3 84 84 S 7 11 29.86 1011 10 16 0.00 0.00

Powered by AerisWeather